Location: Splawn
(30.9202°N, 96.9858°W)
Time: 21:24:55
(UTC+00:00)

Transit 2A Rocket - Pass Details

Date: 07 March 2020
Orbit: 588 x 915 km, 66.7° (Epoch: 09 April)

Event Time Altitude Azimuth Distance (km) Brightness Sun altitude
Rises 10:12:49 0° 343° (NNW) 3,252 - -33.6°
Reaches altitude 10° 10:15:16 10° 350° (N) 2,373 - -33.1°
Exits shadow 10:18:01 28° 9° (N) 1,518 6.6 -32.5°
Maximum altitude 10:20:30 43° 61° (ENE) 1,173 6.2 -32.0°
Drops below altitude 10° 10:26:05 10° 132° (SE) 2,538 8.0 -30.9°
Sets 10:28:46 0° 139° (SE) 3,503 8.8 -30.3°
